Regional Weather Roundup
Issued by NWS San Angelo, TX

Home | Current Version | Previous Version | Text Only | Print | Product List | Glossary On
Versions: 1 2 3 4 5 6 7 8 9 10 11 12 13 14 15 16 17 18 19 20 21 22 23 24 25 26 27 28 29 30 31 32 33 34 35 36 37 38 39 40 41 42 43 44 45 46 47 48 49 50
000
ASUS44 KSJT 241202
RWRSJT
WEST CENTRAL TEXAS REGIONAL WEATHER ROUNDUP
NATIONAL WEATHER SERVICE SAN ANGELO TX
600 AM CST TUE JAN 24 2017

NOTE: "FAIR" INDICATES FEW OR NO CLOUDS BELOW 12,000 FEET WITH NO
SIGNIFICANT WEATHER AND/OR OBSTRUCTIONS TO VISIBILITY.

TXZ049-054-064>066-071>073-076>078-098-099-113-114-127-128-139-140-
154-155-168>170-241300
...LOCATIONS ACROSS WEST CENTRAL TEXAS...

CITY           SKY/WX    TMP DP  RH WIND       PRES   REMARKS
SAN ANGELO     CLEAR     60  32  34 S22G32    29.65R
ABILENE        CLEAR     56  31  38 S15       29.62F
DYESS AFB      CLEAR     60  35  38 SW24G32   29.58F
JUNCTION       PTCLDY    57  34  41 VRB3      29.72S
SWEETWATER     CLEAR     58  32  37 S15       29.63S
BROWNWOOD      NOT AVBL
COLEMAN        NOT AVBL
SONORA         CLOUDY    59  32  36 S7        29.75S
OZONA          FAIR      45  32  61 MISG      29.74R
BRADY          NOT AVBL
$$

TEXAS PANHANDLE/OKLAHOMA PANHANDLE

CITY           SKY/WX    TMP DP  RH WIND       PRES   REMARKS
AMARILLO       CLEAR     45  29  53 SW20      29.53S WCI  37
BORGER         CLEAR     49  29  46 SW10G21   29.51R
CANADIAN       CLEAR     49  31  49 SW8       29.49F
DALHART        CLEAR     37  30  75 SW7       29.53S WCI  32
DUMAS          MOSUNNY   38  28  69 W12       29.53R WCI  30
GUYMON         NOT AVBL
HEREFORD       SUNNY     47  31  53 SW15      29.56S
PAMPA          SUNNY     49  31  48 SW20      29.52S
PERRYTON       CLEAR     48  34  58 SW16      29.47S
$$

SOUTHERN PANHANDLE/SOUTH PLAINS/ROLLING PLAINS

CITY           SKY/WX    TMP DP  RH WIND       PRES   REMARKS
LUBBOCK        PTCLDY    42  33  70 W8        29.60R WCI  37
SNYDER         CLEAR     46  33  62 S8        29.62S
CHILDRESS      PTCLDY    49  34  56 S6        29.55F
SEMINOLE       SUNNY     48  32  54 SW13      29.63S
$$

PERMIAN BASIN

CITY           SKY/WX    TMP DP  RH WIND       PRES   REMARKS
MIDLAND        CLEAR     52  33  48 SW9       29.64R
ODESSA         CLEAR     55  31  39 S13       29.65R
WINK           CLEAR     38  33  82 CALM      29.64R
$$

FAR WEST/SOUTHWEST MOUNTAINS/TRANS PECOS

CITY           SKY/WX    TMP DP  RH WIND       PRES   REMARKS
ALPINE         SUNNY     64  22  20 SW21G30   29.80S
DRYDEN           N/A     45  33  63 E3        29.69R
EL PASO        PTCLDY    54  29  38 W24G32    29.71S
FORT STOCKTON  CLEAR     59  29  31 S13       29.67R
GUADALUPE PASS CLEAR     49  26  41 SW32G43   29.70R
MARFA          CLEAR     32  27  81 NW3       29.80S
PECOS          SUNNY     37  32  81 SW5       29.65S WCI  34
$$

DALLAS/FORT WORTH METROPLEX

CITY           SKY/WX    TMP DP  RH WIND       PRES   REMARKS
DFW AIRPORT    MOCLDY    47  39  74 S7        29.66R
FTW MEACHAM    PTCLDY    51  36  56 SE8       29.66S
DAL-EXECUTIVE  PTCLDY    52  39  61 S5        29.68R
GRAND PRAIRIE  NOT AVBL
ADDISON        CLEAR     54  39  58 SE12      29.69S
MESQUITE       MOSUNNY   50  39  66 S10       29.70S
LANCASTER      PTSUNNY   43  38  84 CALM      29.70R
$$

NORTH CENTRAL TEXAS

CITY           SKY/WX    TMP DP  RH WIND       PRES   REMARKS
SHRMAN/DENISON MOSUNNY   51  39  63 S13       29.67R
GAINESVILLE    CLOUDY    46  38  72 SE9       29.67S
BRIDGEPORT     SUNNY     39  38  96 E3        29.66S
DENTON         PTCLDY    48  38  68 SE3       29.66S
WAXAHACHIE     PTSUNNY   50  40  68 S6        29.70S
GRANBURY       MOSUNNY   55  35  47 S5        29.67S
$$

WESTERN NORTH TEXAS

CITY           SKY/WX    TMP DP  RH WIND       PRES   REMARKS
WICHITA FALLS  CLOUDY    46  36  68 CALM      29.59R
VERNON         MOSUNNY   48  35  62 S10       29.57F
BRECKENRIDGE   NOT AVBL
COMANCHE       PTCLDY    56  32  41 CALM      29.67R
$$

CENTRAL AND SOUTH CENTRAL TEXAS

CITY           SKY/WX    TMP DP  RH WIND       PRES   REMARKS
AUSTIN/BERGSTM PTCLDY    46  41  82 S7        29.74F
WACO           PTCLDY    56  39  53 S14       29.70S
HILLSBORO      MOSUNNY   51  41  68 S8        29.70R
TEMPLE         PTCLDY    50  41  71 S15       29.72F
KILLEEN-GRAY   PTCLDY    51  37  60 S10       29.68F
FORT HOOD      PTCLDY    51  38  61 SE7       29.68S
GEORGETOWN     CLEAR     55  36  47 S12       29.73R
LAGO VISTA     FAIR      59  35  40 S8        29.73S
SAN MARCOS     CLEAR     48  39  71 SW9       29.77S
NEW BRAUNFELS  CLEAR     45  38  76 SW7       29.75S
RANDOLPH AFB   NOT AVBL
SAN ANTONIO    CLEAR     44  38  79 N5        29.77R
STINSON        CLEAR     47  39  74 N5        29.74F
PLEASANTON     NOT AVBL
LA GRANGE      CLEAR     54  52  95 S3        29.76R
GIDDINGS       SUNNY     51  49  92 S3        29.77S
$$

EAST TEXAS

CITY           SKY/WX    TMP DP  RH WIND       PRES   REMARKS
PARIS          CLOUDY    43  34  70 E12       29.72F WCI  37
CLARKSVILLE    NOT AVBL
TYLER          MOCLDY    52  41  66 S12       29.75S
LONGVIEW       CLOUDY    44  40  85 SE3       29.77S
PALESTINE      PTSUNNY   54  47  77 S7        29.77S
NACOGDOCHES    PTCLDY    39  36  87 CALM      29.79S
$$

TEXAS HILL COUNTRY AND EDWARDS PLATEAU

CITY           SKY/WX    TMP DP  RH WIND       PRES   REMARKS
LLANO          NOT AVBL
HORSESHOE BAY  FAIR      61  35  38 S6        29.71S
KERRVILLE      CLOUDY    52  36  53 SE6       29.75S
FREDERICKSBRG  NOT AVBL
ROCKSPRINGS    NOT AVBL
HONDO          CLEAR     43  35  73 N9        29.76R WCI  38
UVALDE         MOSUNNY   47  36  65 NE9       29.74S
DEL RIO        PTCLDY    52  34  50 NE7       29.70R
$$

SOUTHEAST TEXAS

CITY           SKY/WX    TMP DP  RH WIND       PRES   REMARKS
COLLEGE STN    CLEAR     51  49  92 SE5       29.77S
CALDWELL       NOT AVBL
CROCKETT       NOT AVBL
BRENHAM        CLEAR     59  57  92 S8        29.77F
HUNTSVILLE     CLEAR     54  50  86 S6        29.78S
CONROE         CLEAR     41  39  93 CALM      29.80S
HOUSTON BUSH   PTCLDY    56  52  86 S3        29.80S
HOUSTON HOBBY  PTCLDY    55  53  93 SE6       29.80F
PERLAND        CLEAR     58  54  86 SE5       29.82S
WHARTON        SUNNY     57  55  93 S9        29.80S
$$

THE UPPER TEXAS COAST

CITY           SKY/WX    TMP DP  RH WIND       PRES   REMARKS
ORANGE         MOSUNNY   46  45  97 CALM      29.86F FOG
PORT ARTHUR    CLEAR     51  50  96 SE6       29.83F FOG
GALVESTON      CLEAR     65  61  87 S12       29.83S
ANGLETON       CLEAR     60  57  89 S9        29.81S
BAY CITY       SUNNY     56  56 100 S5        29.81S
$$

TEXAS COASTAL BEND, RIO GRANDE PLAINS DEEP SOUTH TEXAS

CITY           SKY/WX    TMP DP  RH WIND       PRES   REMARKS
VICTORIA       CLEAR     57  54  89 S9        29.79S
BEEVILLE       FAIR      59  59 100 S13       29.76S
ROCKPORT       CLEAR     66  61  84 S9G18     29.78F
PORT ARANSAS   SUNNY     65  62  90 S13       29.78S
PORT LAVACA    SUNNY     55  55 100 CALM      29.79F
CORPUS CHRISTI CLEAR     62  59  90 S13       29.77S
KINGSVILLE NAS CLEAR     61  59  93 S13       29.76F
COTULLA        CLEAR     53  42  66 SE9       29.72F
LAREDO         CLEAR     59  45  59 SE15      29.72F
BROWNSVILLE    CLEAR     64  61  90 S13       29.81F
PORT ISABEL    CLEAR     64  61  90 S10       29.80S
HEBBRONVILLE   SUNNY     50  47  91 S5        29.75S
MCALLEN        CLEAR     63  53  70 S14       29.78F
WESLACO        CLEAR     62  56  83 S14G20    29.78S
FALFURRIAS     SUNNY     54  53  96 S9        29.75F
EDINBURG       SUNNY     64  56  75 S13       29.78S
$$



USA.gov is the U.S. government's official web portal to all federal, state and local government web resources and services.